Time,TemperatureF,DewpointF,PressureIn,WindDirection,WindDirectionDegrees,WindSpeedMPH,WindSpeedGustMPH,Humidity,HourlyPrecipIn,Conditions,Clouds,dailyrainin,SoftwareType,DateUTC
2013-07-01 00:01:00,66.5,64.1,29.93,West,278,0.0,0.0,92,0.00,,,0.00,Wunderground v.1.13,2013-07-01 04:01:00,
2013-07-01 00:02:00,66.5,64.1,29.93,West,277,0.0,0.0,92,0.00,,,0.00,Wunderground v.1.13,2013-07-01 04:02:00,
2013-07-01 00:03:00,66.4,64.0,29.93,West,277,0.0,0.0,92,0.00,,,0.00,Wunderground v.1.13,2013-07-01 04:03:00,
2013-07-01 00:07:00,66.4,64.0,29.93,West,278,0.0,0.0,92,0.00,,,0.00,Wunderground v.1.13,2013-07-01 04:07:00,
2013-07-01 00:12:00,66.5,64.1,29.93,West,278,0.0,0.0,92,0.00,,,0.00,Wunderground v.1.13,2013-07-01 04:12:00,
2013-07-01 00:18:00,66.4,64.0,29.93,West,278,0.0,0.0,92,0.00,,,0.00,Wunderground v.1.13,2013-07-01 04:18:00,
2013-07-01 00:23:00,66.4,64.0,29.93,West,278,0.0,0.0,92,0.00,,,0.00,Wunderground v.1.13,2013-07-01 04:23:00,
2013-07-01 00:28:00,66.3,63.9,29.93,West,278,0.0,0.0,92,0.00,,,0.00,Wunderground v.1.13,2013-07-01 04:28:00,
2013-07-01 00:34:00,66.3,63.9,29.93,West,277,0.0,0.0,92,0.00,,,0.00,Wunderground v.1.13,2013-07-01 04:34:00,
2013-07-01 00:39:00,66.3,63.9,29.93,West,278,0.0,0.0,92,0.00,,,0.00,Wunderground v.1.13,2013-07-01 04:39:00,
2013-07-01 00:45:00,66.2,63.8,29.93,West,278,0.0,0.0,92,0.00,,,0.00,Wunderground v.1.13,2013-07-01 04:45:00,
2013-07-01 00:51:00,66.3,63.9,29.93,West,277,0.0,0.0,92,0.00,,,0.00,Wunderground v.1.13,2013-07-01 04:51:00,
2013-07-01 00:57:00,66.2,63.8,29.93,West,278,0.0,0.0,92,0.00,,,0.00,Wunderground v.1.13,2013-07-01 04:57:00,
2013-07-01 01:02:00,66.1,63.7,29.93,West,278,0.0,0.0,92,0.00,,,0.00,Wunderground v.1.13,2013-07-01 05:02:00,
2013-07-01 01:07:00,66.0,63.6,29.94,West,277,0.0,0.0,92,0.00,,,0.00,Wunderground v.1.13,2013-07-01 05:07:00,
2013-07-01 01:13:00,66.0,63.6,29.94,West,277,0.0,0.0,92,0.00,,,0.00,Wunderground v.1.13,2013-07-01 05:13:00,
2013-07-01 01:18:00,65.9,63.5,29.94,West,278,0.0,0.0,92,0.00,,,0.00,Wunderground v.1.13,2013-07-01 05:18:00,
2013-07-01 01:24:00,65.8,63.4,29.93,West,278,0.0,0.0,92,0.00,,,0.00,Wunderground v.1.13,2013-07-01 05:24:00,
2013-07-01 01:29:00,65.8,63.4,29.94,West,278,0.0,0.0,92,0.00,,,0.00,Wunderground v.1.13,2013-07-01 05:29:00,
2013-07-01 01:35:00,65.8,63.7,29.94,West,278,0.0,0.0,93,0.00,,,0.00,Wunderground v.1.13,2013-07-01 05:35:00,
2013-07-01 01:40:00,65.9,63.8,29.94,West,278,0.0,0.0,93,0.00,,,0.00,Wunderground v.1.13,2013-07-01 05:40:00,
2013-07-01 01:46:00,65.9,63.8,29.94,West,278,0.0,0.0,93,0.00,,,0.00,Wunderground v.1.13,2013-07-01 05:46:00,
2013-07-01 01:51:00,65.9,63.8,29.94,West,277,0.0,0.0,93,0.00,,,0.00,Wunderground v.1.13,2013-07-01 05:51:00,
2013-07-01 01:57:00,65.8,63.7,29.94,West,278,0.0,0.0,93,0.00,,,0.00,Wunderground v.1.13,2013-07-01 05:57:00,
2013-07-01 02:02:00,65.8,63.7,29.94,West,278,0.0,0.0,93,0.00,,,0.00,Wunderground v.1.13,2013-07-01 06:02:00,
2013-07-01 02:07:00,65.7,63.3,29.94,West,277,0.0,0.0,92,0.00,,,0.00,Wunderground v.1.13,2013-07-01 06:07:00,
2013-07-01 02:12:00,65.5,63.1,29.95,West,278,0.0,0.0,92,0.00,,,0.00,Wunderground v.1.13,2013-07-01 06:12:00,
2013-07-01 02:17:00,65.4,63.3,29.94,West,278,0.0,0.0,93,0.00,,,0.00,Wunderground v.1.13,2013-07-01 06:17:00,
2013-07-01 02:22:00,65.4,63.3,29.95,West,278,0.0,0.0,93,0.00,,,0.00,Wunderground v.1.13,2013-07-01 06:22:00,
2013-07-01 02:27:00,65.5,63.4,29.94,West,278,0.0,0.0,93,0.00,,,0.00,Wunderground v.1.13,2013-07-01 06:27:00,
2013-07-01 02:32:00,65.6,63.5,29.95,West,277,0.0,0.0,93,0.00,,,0.00,Wunderground v.1.13,2013-07-01 06:32:00,
2013-07-01 02:37:00,65.6,63.5,29.94,West,278,0.0,0.0,93,0.00,,,0.00,Wunderground v.1.13,2013-07-01 06:37:00,
2013-07-01 02:42:00,65.6,63.5,29.94,West,277,0.0,0.0,93,0.00,,,0.00,Wunderground v.1.13,2013-07-01 06:42:00,
2013-07-01 02:47:00,65.5,63.4,29.94,West,278,0.0,0.0,93,0.00,,,0.00,Wunderground v.1.13,2013-07-01 06:47:00,
2013-07-01 02:52:00,65.4,63.3,29.94,West,277,0.0,0.0,93,0.00,,,0.00,Wunderground v.1.13,2013-07-01 06:52:00,
2013-07-01 02:57:00,65.3,63.2,29.94,West,278,0.0,0.0,93,0.00,,,0.00,Wunderground v.1.13,2013-07-01 06:57:00,
2013-07-01 03:02:00,65.2,63.1,29.95,West,278,0.0,0.0,93,0.00,,,0.00,Wunderground v.1.13,2013-07-01 07:02:00,
2013-07-01 03:08:00,65.1,63.0,29.94,West,278,0.0,0.0,93,0.00,,,0.00,Wunderground v.1.13,2013-07-01 07:08:00,
2013-07-01 03:13:00,65.1,63.0,29.94,West,278,0.0,0.0,93,0.00,,,0.00,Wunderground v.1.13,2013-07-01 07:13:00,
2013-07-01 03:18:00,65.0,62.9,29.94,West,278,0.0,0.0,93,0.00,,,0.00,Wunderground v.1.13,2013-07-01 07:18:00,
2013-07-01 03:23:00,64.9,62.8,29.94,West,278,0.0,0.0,93,0.00,,,0.00,Wunderground v.1.13,2013-07-01 07:23:00,
2013-07-01 03:28:00,64.9,62.8,29.95,West,277,0.0,0.0,93,0.00,,,0.00,Wunderground v.1.13,2013-07-01 07:28:00,
2013-07-01 03:33:00,64.8,62.7,29.95,West,278,0.0,0.0,93,0.00,,,0.00,Wunderground v.1.13,2013-07-01 07:33:00,
2013-07-01 03:38:00,64.7,62.6,29.95,West,278,0.0,0.0,93,0.00,,,0.00,Wunderground v.1.13,2013-07-01 07:38:00,
2013-07-01 03:43:00,64.7,62.6,29.95,West,277,0.0,0.0,93,0.00,,,0.00,Wunderground v.1.13,2013-07-01 07:43:00,
2013-07-01 03:48:00,64.7,62.6,29.95,West,278,0.0,0.0,93,0.00,,,0.00,Wunderground v.1.13,2013-07-01 07:48:00,
2013-07-01 03:53:00,64.6,62.5,29.95,West,277,0.0,0.0,93,0.00,,,0.00,Wunderground v.1.13,2013-07-01 07:53:00,
2013-07-01 03:58:00,64.6,62.5,29.95,West,278,0.0,0.0,93,0.00,,,0.00,Wunderground v.1.13,2013-07-01 07:58:00,
2013-07-01 04:03:00,64.8,62.7,29.95,West,278,0.0,0.0,93,0.00,,,0.00,Wunderground v.1.13,2013-07-01 08:03:00,
2013-07-01 04:09:00,64.8,62.7,29.95,West,278,0.0,0.0,93,0.00,,,0.00,Wunderground v.1.13,2013-07-01 08:09:00,
2013-07-01 04:14:00,64.7,62.6,29.95,West,277,0.0,0.0,93,0.00,,,0.00,Wunderground v.1.13,2013-07-01 08:14:00,
2013-07-01 04:19:00,64.7,62.6,29.95,West,278,0.0,0.0,93,0.00,,,0.00,Wunderground v.1.13,2013-07-01 08:19:00,
2013-07-01 04:24:00,64.7,62.6,29.95,West,277,0.0,0.0,93,0.00,,,0.00,Wunderground v.1.13,2013-07-01 08:24:00,
2013-07-01 04:29:00,64.7,62.6,29.95,West,278,0.0,0.0,93,0.00,,,0.00,Wunderground v.1.13,2013-07-01 08:29:00,
2013-07-01 04:34:00,64.7,62.6,29.95,West,278,0.0,0.0,93,0.00,,,0.00,Wunderground v.1.13,2013-07-01 08:34:00,
2013-07-01 04:39:00,64.7,62.6,29.96,West,278,0.0,0.0,93,0.00,,,0.00,Wunderground v.1.13,2013-07-01 08:39:00,
2013-07-01 04:44:00,64.8,62.7,29.96,West,278,0.0,0.0,93,0.00,,,0.00,Wunderground v.1.13,2013-07-01 08:44:00,
2013-07-01 04:49:00,64.8,62.7,29.96,West,277,0.0,0.0,93,0.00,,,0.00,Wunderground v.1.13,2013-07-01 08:49:00,
2013-07-01 04:54:00,64.9,62.8,29.96,West,278,0.0,0.0,93,0.00,,,0.00,Wunderground v.1.13,2013-07-01 08:54:00,
2013-07-01 04:59:00,64.9,62.8,29.96,West,278,0.0,0.0,93,0.00,,,0.00,Wunderground v.1.13,2013-07-01 08:59:00,
2013-07-01 05:04:00,64.9,62.8,29.96,West,277,0.0,0.0,93,0.00,,,0.00,Wunderground v.1.13,2013-07-01 09:04:00,
2013-07-01 05:09:00,64.8,62.7,29.96,West,278,0.0,0.0,93,0.00,,,0.00,Wunderground v.1.13,2013-07-01 09:09:00,
2013-07-01 05:14:00,64.7,62.6,29.96,West,277,0.0,0.0,93,0.00,,,0.00,Wunderground v.1.13,2013-07-01 09:14:00,
2013-07-01 05:19:00,64.6,62.5,29.97,West,278,0.0,0.0,93,0.00,,,0.00,Wunderground v.1.13,2013-07-01 09:19:00,
2013-07-01 05:24:00,64.6,62.5,29.97,West,278,0.0,0.0,93,0.00,,,0.00,Wunderground v.1.13,2013-07-01 09:24:00,
2013-07-01 05:29:00,64.6,62.5,29.97,West,278,0.0,0.0,93,0.00,,,0.00,Wunderground v.1.13,2013-07-01 09:29:00,
2013-07-01 05:34:00,64.7,62.6,29.97,West,277,0.0,0.0,93,0.00,,,0.00,Wunderground v.1.13,2013-07-01 09:34:00,
2013-07-01 05:39:00,64.7,62.6,29.97,West,278,0.0,0.0,93,0.00,,,0.00,Wunderground v.1.13,2013-07-01 09:39:00,
2013-07-01 05:44:00,64.6,62.5,29.97,West,277,0.0,0.0,93,0.00,,,0.00,Wunderground v.1.13,2013-07-01 09:44:00,
2013-07-01 05:50:00,64.6,62.5,29.98,West,278,0.0,0.0,93,0.00,,,0.00,Wunderground v.1.13,2013-07-01 09:50:00,
2013-07-01 05:55:00,64.6,62.5,29.98,West,277,0.0,0.0,93,0.00,,,0.00,Wunderground v.1.13,2013-07-01 09:55:00,
2013-07-01 06:00:00,64.6,62.5,29.98,West,277,0.0,0.0,93,0.00,,,0.00,Wunderground v.1.13,2013-07-01 10:00:00,
2013-07-01 06:05:00,64.6,62.8,29.98,West,277,0.0,0.0,94,0.00,,,0.00,Wunderground v.1.13,2013-07-01 10:05:00,
2013-07-01 06:10:00,64.6,62.8,29.98,West,279,0.0,0.0,94,0.00,,,0.00,Wunderground v.1.13,2013-07-01 10:10:00,
2013-07-01 06:15:00,64.7,62.9,29.99,West,279,0.0,0.0,94,0.00,,,0.00,Wunderground v.1.13,2013-07-01 10:15:00,
2013-07-01 06:20:00,64.8,63.0,29.99,West,279,0.0,0.0,94,0.00,,,0.00,Wunderground v.1.13,2013-07-01 10:20:00,
2013-07-01 06:25:00,64.8,63.0,29.99,North,355,0.0,0.0,94,0.00,,,0.00,Wunderground v.1.13,2013-07-01 10:25:00,
2013-07-01 06:30:00,64.8,63.0,29.99,North,355,0.0,0.0,94,0.00,,,0.00,Wunderground v.1.13,2013-07-01 10:30:00,
2013-07-01 06:35:00,65.0,62.9,29.99,North,355,0.0,0.0,93,0.00,,,0.00,Wunderground v.1.13,2013-07-01 10:35:00,
2013-07-01 06:40:00,65.0,62.9,29.99,North,355,0.0,0.0,93,0.00,,,0.00,Wunderground v.1.13,2013-07-01 10:40:00,
2013-07-01 06:45:00,64.9,62.8,30.00,North,355,0.0,0.0,93,0.00,,,0.00,Wunderground v.1.13,2013-07-01 10:45:00,
2013-07-01 06:50:00,64.9,62.8,30.00,North,355,0.0,0.0,93,0.00,,,0.00,Wunderground v.1.13,2013-07-01 10:50:00,
2013-07-01 06:55:00,64.9,62.8,30.00,North,355,1.0,1.0,93,0.00,,,0.00,Wunderground v.1.13,2013-07-01 10:55:00,
2013-07-01 07:00:00,64.8,62.7,30.00,ENE,75,0.0,0.0,93,0.00,,,0.00,Wunderground v.1.13,2013-07-01 11:00:00,
2013-07-01 07:05:00,64.6,62.5,30.00,NE,55,0.0,0.0,93,0.00,,,0.00,Wunderground v.1.13,2013-07-01 11:05:00,
2013-07-01 07:10:00,64.6,62.5,30.00,NE,55,0.0,0.0,93,0.00,,,0.00,Wunderground v.1.13,2013-07-01 11:10:00,
2013-07-01 07:15:00,64.6,62.8,30.00,NE,55,0.0,0.0,94,0.00,,,0.00,Wunderground v.1.13,2013-07-01 11:15:00,
2013-07-01 07:20:00,64.8,63.0,30.00,NE,55,0.0,0.0,94,0.00,,,0.00,Wunderground v.1.13,2013-07-01 11:20:00,
2013-07-01 07:25:00,64.8,63.0,30.00,NE,55,0.0,0.0,94,0.00,,,0.00,Wunderground v.1.13,2013-07-01 11:25:00,
2013-07-01 07:31:00,65.0,62.9,30.01,NE,55,0.0,0.0,93,0.00,,,0.00,Wunderground v.1.13,2013-07-01 11:31:00,
2013-07-01 07:36:00,65.2,63.1,30.00,NE,55,0.0,0.0,93,0.00,,,0.00,Wunderground v.1.13,2013-07-01 11:36:00,
2013-07-01 07:41:00,65.2,63.1,30.00,NE,55,0.0,0.0,93,0.00,,,0.00,Wunderground v.1.13,2013-07-01 11:41:00,
2013-07-01 07:46:00,65.2,63.1,30.00,NE,55,0.0,0.0,93,0.00,,,0.00,Wunderground v.1.13,2013-07-01 11:46:00,
2013-07-01 07:51:00,65.3,63.5,30.00,NE,55,0.0,0.0,94,0.00,,,0.00,Wunderground v.1.13,2013-07-01 11:51:00,
2013-07-01 07:56:00,65.6,63.8,30.00,South,176,0.0,0.0,94,0.00,,,0.00,Wunderground v.1.13,2013-07-01 11:56:00,
2013-07-01 08:01:00,65.9,63.8,30.00,NE,53,0.0,0.0,93,0.00,,,0.00,Wunderground v.1.13,2013-07-01 12:01:00,
2013-07-01 08:06:00,66.3,64.2,30.00,NE,54,0.0,0.0,93,0.00,,,0.00,Wunderground v.1.13,2013-07-01 12:06:00,
2013-07-01 08:11:00,66.8,65.0,30.00,NNE,28,0.0,3.0,94,0.00,,,0.00,Wunderground v.1.13,2013-07-01 12:11:00,
2013-07-01 08:16:00,67.0,64.9,30.00,ENE,59,1.0,1.0,93,0.00,,,0.00,Wunderground v.1.13,2013-07-01 12:16:00,
2013-07-01 08:21:00,67.2,64.8,30.01,ENE,59,0.0,1.0,92,0.00,,,0.00,Wunderground v.1.13,2013-07-01 12:21:00,
2013-07-01 08:26:00,67.6,64.9,30.01,ENE,59,0.0,0.0,91,0.00,,,0.00,Wunderground v.1.13,2013-07-01 12:26:00,
2013-07-01 08:31:00,67.9,65.2,30.01,ENE,59,1.0,1.0,91,0.00,,,0.00,Wunderground v.1.13,2013-07-01 12:31:00,
2013-07-01 08:36:00,68.1,65.1,30.01,ENE,59,0.0,0.0,90,0.00,,,0.00,Wunderground v.1.13,2013-07-01 12:36:00,
2013-07-01 08:41:00,68.3,65.3,30.01,ENE,59,1.0,1.0,90,0.00,,,0.00,Wunderground v.1.13,2013-07-01 12:41:00,
2013-07-01 08:46:00,68.6,65.2,30.01,ENE,59,0.0,1.0,89,0.00,,,0.00,Wunderground v.1.13,2013-07-01 12:46:00,
2013-07-01 08:51:00,68.8,65.1,30.01,North,9,2.0,3.0,88,0.00,,,0.00,Wunderground v.1.13,2013-07-01 12:51:00,
2013-07-01 08:57:00,69.0,65.3,30.01,North,360,0.0,2.0,88,0.00,,,0.00,Wunderground v.1.13,2013-07-01 12:57:00,
2013-07-01 09:02:00,69.4,65.7,30.01,North,5,0.0,1.0,88,0.00,,,0.00,Wunderground v.1.13,2013-07-01 13:02:00,
2013-07-01 09:07:00,69.6,65.6,30.01,North,355,0.0,2.0,87,0.00,,,0.00,Wunderground v.1.13,2013-07-01 13:07:00,
2013-07-01 09:12:00,69.9,65.5,30.01,North,351,0.0,1.0,86,0.00,,,0.00,Wunderground v.1.13,2013-07-01 13:12:00,
2013-07-01 09:17:00,70.2,65.8,30.01,NE,47,0.0,3.0,86,0.00,,,0.00,Wunderground v.1.13,2013-07-01 13:17:00,
2013-07-01 09:22:00,70.2,65.5,30.01,NE,45,0.0,2.0,85,0.00,,,0.00,Wunderground v.1.13,2013-07-01 13:22:00,
2013-07-01 09:27:00,70.2,65.5,30.01,NE,42,0.0,2.0,85,0.00,,,0.00,Wunderground v.1.13,2013-07-01 13:27:00,
2013-07-01 09:33:00,70.4,65.7,30.00,NE,38,0.0,2.0,85,0.00,,,0.00,Wunderground v.1.13,2013-07-01 13:33:00,
2013-07-01 09:38:00,70.4,66.0,30.01,NNE,32,0.0,3.0,86,0.00,,,0.00,Wunderground v.1.13,2013-07-01 13:38:00,
2013-07-01 09:43:00,70.7,66.0,30.01,NNW,345,0.0,1.0,85,0.00,,,0.00,Wunderground v.1.13,2013-07-01 13:43:00,
2013-07-01 09:48:00,71.0,66.6,30.01,North,349,0.0,1.0,86,0.00,,,0.00,Wunderground v.1.13,2013-07-01 13:48:00,
2013-07-01 09:53:00,71.2,66.5,30.01,SE,136,0.0,1.0,85,0.00,,,0.00,Wunderground v.1.13,2013-07-01 13:53:00,
2013-07-01 09:58:00,71.3,66.6,30.02,NNE,17,0.0,5.0,85,0.00,,,0.00,Wunderground v.1.13,2013-07-01 13:58:00,
2013-07-01 10:03:00,71.1,66.4,30.01,WSW,253,0.0,3.0,85,0.00,,,0.00,Wunderground v.1.13,2013-07-01 14:03:00,
2013-07-01 10:08:00,71.0,66.3,30.01,WSW,242,1.0,1.0,85,0.00,,,0.00,Wunderground v.1.13,2013-07-01 14:08:00,
2013-07-01 10:13:00,71.1,66.7,30.02,WSW,242,0.0,0.0,86,0.00,,,0.00,Wunderground v.1.13,2013-07-01 14:13:00,
2013-07-01 10:18:00,71.3,66.6,30.02,WSW,242,0.0,0.0,85,0.00,,,0.00,Wunderground v.1.13,2013-07-01 14:18:00,
2013-07-01 10:23:00,71.3,66.2,30.03,WSW,245,1.0,1.0,84,0.00,,,0.00,Wunderground v.1.13,2013-07-01 14:23:00,
2013-07-01 10:28:00,71.3,66.6,30.02,WSW,245,0.0,0.0,85,0.00,,,0.00,Wunderground v.1.13,2013-07-01 14:28:00,
2013-07-01 10:33:00,71.7,66.9,30.02,WSW,245,0.0,1.0,85,0.00,,,0.00,Wunderground v.1.13,2013-07-01 14:33:00,
2013-07-01 10:39:00,71.9,67.5,30.03,WSW,245,0.0,0.0,86,0.00,,,0.00,Wunderground v.1.13,2013-07-01 14:39:00,
2013-07-01 10:43:00,72.0,66.9,30.03,WSW,245,0.0,1.0,84,0.00,,,0.00,Wunderground v.1.13,2013-07-01 14:43:00,
2013-07-01 10:48:00,72.0,66.9,30.03,WSW,245,0.0,1.0,84,0.00,,,0.00,Wunderground v.1.13,2013-07-01 14:48:00,
2013-07-01 10:54:00,72.1,67.0,30.03,WSW,245,0.0,0.0,84,0.00,,,0.00,Wunderground v.1.13,2013-07-01 14:54:00,
2013-07-01 10:59:00,71.9,66.8,30.03,WSW,245,0.0,0.0,84,0.00,,,0.00,Wunderground v.1.13,2013-07-01 14:59:00,
2013-07-01 11:04:00,71.8,67.0,30.04,WSW,245,0.0,0.0,85,0.00,,,0.00,Wunderground v.1.13,2013-07-01 15:04:00,
2013-07-01 11:09:00,71.6,67.5,30.04,WSW,245,0.0,0.0,87,0.00,,,0.00,Wunderground v.1.13,2013-07-01 15:09:00,
2013-07-01 11:14:00,71.5,67.1,30.04,WSW,245,0.0,0.0,86,0.00,,,0.00,Wunderground v.1.13,2013-07-01 15:14:00,
2013-07-01 11:19:00,71.3,66.9,30.04,WSW,245,0.0,0.0,86,0.00,,,0.00,Wunderground v.1.13,2013-07-01 15:19:00,
2013-07-01 11:24:00,71.2,67.1,30.04,WSW,245,0.0,0.0,87,0.00,,,0.00,Wunderground v.1.13,2013-07-01 15:24:00,
2013-07-01 11:30:00,71.2,67.5,30.04,WSW,245,0.0,0.0,88,0.00,,,0.00,Wunderground v.1.13,2013-07-01 15:30:00,
2013-07-01 11:35:00,71.3,67.9,30.04,WSW,245,0.0,0.0,89,0.00,,,0.00,Wunderground v.1.13,2013-07-01 15:35:00,
2013-07-01 11:40:00,71.6,68.2,30.04,WSW,245,0.0,0.0,89,0.00,,,0.00,Wunderground v.1.13,2013-07-01 15:40:00,
2013-07-01 11:45:00,71.6,67.5,30.04,WSW,245,0.0,0.0,87,0.00,,,0.00,Wunderground v.1.13,2013-07-01 15:45:00,
2013-07-01 11:50:00,71.9,67.5,30.04,WSW,245,0.0,0.0,86,0.00,,,0.00,Wunderground v.1.13,2013-07-01 15:50:00,
2013-07-01 11:55:00,72.3,68.2,30.04,WSW,246,0.0,0.0,87,0.00,,,0.00,Wunderground v.1.13,2013-07-01 15:55:00,
2013-07-01 12:01:00,72.5,67.4,30.04,WSW,246,0.0,1.0,84,0.00,,,0.00,Wunderground v.1.13,2013-07-01 16:01:00,
2013-07-01 12:06:00,72.7,67.9,30.04,WSW,246,0.0,0.0,85,0.00,,,0.01,Wunderground v.1.13,2013-07-01 16:06:00,
2013-07-01 12:11:00,73.1,68.7,30.04,WSW,245,0.0,0.0,86,0.00,,,0.01,Wunderground v.1.13,2013-07-01 16:11:00,
2013-07-01 12:16:00,73.1,67.3,30.04,WSW,245,0.0,0.0,82,0.00,,,0.01,Wunderground v.1.13,2013-07-01 16:16:00,
2013-07-01 12:21:00,73.4,68.6,30.03,WSW,246,0.0,0.0,85,0.00,,,0.01,Wunderground v.1.13,2013-07-01 16:21:00,
2013-07-01 12:26:00,73.4,67.9,30.03,WSW,248,0.0,0.0,83,0.00,,,0.01,Wunderground v.1.13,2013-07-01 16:26:00,
2013-07-01 12:31:00,73.3,67.8,30.03,WSW,248,0.0,1.0,83,0.00,,,0.01,Wunderground v.1.13,2013-07-01 16:31:00,
2013-07-01 12:36:00,73.3,67.8,30.03,WSW,247,0.0,1.0,83,0.00,,,0.01,Wunderground v.1.13,2013-07-01 16:36:00,
2013-07-01 12:41:00,73.3,68.2,30.02,WSW,248,0.0,1.0,84,0.00,,,0.01,Wunderground v.1.13,2013-07-01 16:41:00,
2013-07-01 12:47:00,73.5,68.0,30.02,WSW,248,0.0,2.0,83,0.00,,,0.01,Wunderground v.1.13,2013-07-01 16:47:00,
2013-07-01 12:52:00,73.9,68.8,30.02,WSW,248,0.0,0.0,84,0.00,,,0.01,Wunderground v.1.13,2013-07-01 16:52:00,
2013-07-01 12:57:00,74.1,68.3,30.01,WNW,292,0.0,3.0,82,0.00,,,0.01,Wunderground v.1.13,2013-07-01 16:57:00,
2013-07-01 13:02:00,74.3,69.5,30.01,WNW,292,0.0,0.0,85,0.00,,,0.01,Wunderground v.1.13,2013-07-01 17:02:00,
2013-07-01 13:07:00,74.3,68.1,30.01,WNW,292,0.0,2.0,81,0.00,,,0.01,Wunderground v.1.13,2013-07-01 17:07:00,
2013-07-01 13:12:00,74.3,68.4,30.01,WSW,252,0.0,3.0,82,0.00,,,0.01,Wunderground v.1.13,2013-07-01 17:12:00,
2013-07-01 13:17:00,74.4,69.6,30.00,WSW,252,0.0,0.0,85,0.00,,,0.01,Wunderground v.1.13,2013-07-01 17:17:00,
2013-07-01 13:22:00,74.2,69.4,30.00,WSW,252,0.0,0.0,85,0.00,,,0.01,Wunderground v.1.13,2013-07-01 17:22:00,
2013-07-01 13:27:00,73.8,68.3,30.00,SW,234,0.0,3.0,83,0.00,,,0.01,Wunderground v.1.13,2013-07-01 17:27:00,
2013-07-01 13:32:00,74.0,68.5,30.00,SW,235,1.0,1.0,83,0.00,,,0.01,Wunderground v.1.13,2013-07-01 17:32:00,
2013-07-01 13:37:00,74.2,68.3,30.00,SW,235,0.0,0.0,82,0.00,,,0.01,Wunderground v.1.13,2013-07-01 17:37:00,
2013-07-01 13:42:00,74.6,68.7,30.01,SW,234,0.0,0.0,82,0.00,,,0.01,Wunderground v.1.13,2013-07-01 17:42:00,
2013-07-01 13:47:00,74.7,68.1,30.01,SW,235,0.0,0.0,80,0.00,,,0.01,Wunderground v.1.13,2013-07-01 17:47:00,
2013-07-01 13:53:00,74.9,67.6,30.02,SW,234,0.0,1.0,78,0.00,,,0.01,Wunderground v.1.13,2013-07-01 17:53:00,
2013-07-01 13:58:00,74.8,69.3,30.02,SW,234,0.0,0.0,83,0.00,,,0.01,Wunderground v.1.13,2013-07-01 17:58:00,
2013-07-01 14:03:00,74.5,68.6,30.01,SW,235,0.0,0.0,82,0.00,,,0.01,Wunderground v.1.13,2013-07-01 18:03:00,
2013-07-01 14:08:00,74.4,67.8,30.01,SW,235,0.0,0.0,80,0.00,,,0.01,Wunderground v.1.13,2013-07-01 18:08:00,
2013-07-01 14:14:00,74.6,68.0,30.01,SW,235,0.0,1.0,80,0.00,,,0.01,Wunderground v.1.13,2013-07-01 18:14:00,
2013-07-01 14:19:00,74.9,68.3,30.01,ENE,68,1.0,2.0,80,0.00,,,0.01,Wunderground v.1.13,2013-07-01 18:19:00,
2013-07-01 14:24:00,75.1,68.5,30.02,ENE,69,0.0,0.0,80,0.00,,,0.01,Wunderground v.1.13,2013-07-01 18:24:00,
2013-07-01 14:29:00,75.3,69.1,30.02,ENE,69,0.0,0.0,81,0.00,,,0.01,Wunderground v.1.13,2013-07-01 18:29:00,
2013-07-01 14:34:00,75.6,69.7,30.02,ENE,69,0.0,1.0,82,0.00,,,0.01,Wunderground v.1.13,2013-07-01 18:34:00,
2013-07-01 14:39:00,75.8,69.9,30.02,ENE,69,0.0,1.0,82,0.00,,,0.01,Wunderground v.1.13,2013-07-01 18:39:00,
2013-07-01 14:44:00,75.6,67.5,30.02,North,9,0.0,5.0,76,0.00,,,0.01,Wunderground v.1.13,2013-07-01 18:44:00,
2013-07-01 14:49:00,75.6,68.3,30.02,North,5,0.0,1.0,78,0.00,,,0.01,Wunderground v.1.13,2013-07-01 18:49:00,
2013-07-01 14:54:00,75.8,67.3,30.02,North,9,0.0,1.0,75,0.00,,,0.01,Wunderground v.1.13,2013-07-01 18:54:00,
2013-07-01 14:59:00,76.0,67.9,30.02,North,5,0.0,0.0,76,0.00,,,0.01,Wunderground v.1.13,2013-07-01 18:59:00,
2013-07-01 15:04:00,76.6,69.6,30.02,North,360,0.0,2.0,79,0.00,,,0.01,Wunderground v.1.13,2013-07-01 19:04:00,
2013-07-01 15:09:00,76.5,68.7,30.02,SW,215,0.0,2.0,77,0.00,,,0.01,Wunderground v.1.13,2013-07-01 19:09:00,
2013-07-01 15:14:00,76.2,68.8,30.02,SW,215,0.0,1.0,78,0.00,,,0.01,Wunderground v.1.13,2013-07-01 19:14:00,
2013-07-01 15:19:00,76.0,68.6,30.02,SW,215,0.0,1.0,78,0.00,,,0.01,Wunderground v.1.13,2013-07-01 19:19:00,
2013-07-01 15:24:00,76.0,69.4,30.02,SW,215,0.0,2.0,80,0.00,,,0.01,Wunderground v.1.13,2013-07-01 19:24:00,
2013-07-01 15:29:00,75.7,69.1,30.02,SW,216,0.0,2.0,80,0.00,,,0.01,Wunderground v.1.13,2013-07-01 19:29:00,
2013-07-01 15:35:00,75.5,69.6,30.02,SW,215,0.0,0.0,82,0.00,,,0.01,Wunderground v.1.13,2013-07-01 19:35:00,
2013-07-01 15:40:00,75.3,69.1,30.02,NNE,29,2.0,2.0,81,0.00,,,0.01,Wunderground v.1.13,2013-07-01 19:40:00,
2013-07-01 15:45:00,75.1,68.9,30.02,NNE,29,0.0,1.0,81,0.00,,,0.01,Wunderground v.1.13,2013-07-01 19:45:00,
2013-07-01 15:50:00,74.9,69.0,30.02,North,355,0.0,1.0,82,0.00,,,0.01,Wunderground v.1.13,2013-07-01 19:50:00,
2013-07-01 15:55:00,75.0,69.1,30.01,North,355,0.0,1.0,82,0.00,,,0.01,Wunderground v.1.13,2013-07-01 19:55:00,
2013-07-01 16:00:00,75.1,68.9,30.02,NW,319,0.0,1.0,81,0.00,,,0.01,Wunderground v.1.13,2013-07-01 20:00:00,
2013-07-01 16:05:00,75.1,68.9,30.02,North,5,1.0,1.0,81,0.00,,,0.01,Wunderground v.1.13,2013-07-01 20:05:00,
2013-07-01 16:10:00,75.1,68.9,30.01,SSW,206,0.0,0.0,81,0.00,,,0.01,Wunderground v.1.13,2013-07-01 20:10:00,
2013-07-01 16:15:00,75.0,68.8,30.01,NNW,336,1.0,1.0,81,0.00,,,0.01,Wunderground v.1.13,2013-07-01 20:15:00,
2013-07-01 16:20:00,74.7,68.8,30.02,NNW,336,0.0,1.0,82,0.00,,,0.01,Wunderground v.1.13,2013-07-01 20:20:00,
2013-07-01 16:25:00,74.7,69.5,30.01,NNW,336,0.0,0.0,84,0.00,,,0.01,Wunderground v.1.13,2013-07-01 20:25:00,
2013-07-01 16:30:00,74.7,69.2,30.01,North,5,0.0,0.0,83,0.00,,,0.01,Wunderground v.1.13,2013-07-01 20:30:00,
2013-07-01 16:35:00,74.7,69.2,30.01,North,5,0.0,0.0,83,0.00,,,0.01,Wunderground v.1.13,2013-07-01 20:35:00,
2013-07-01 16:40:00,74.7,69.2,30.01,North,5,0.0,0.0,83,0.00,,,0.01,Wunderground v.1.13,2013-07-01 20:40:00,
2013-07-01 16:45:00,74.7,69.2,30.01,North,5,0.0,0.0,83,0.00,,,0.01,Wunderground v.1.13,2013-07-01 20:45:00,
2013-07-01 16:50:00,74.6,69.1,30.01,North,360,0.0,0.0,83,0.00,,,0.01,Wunderground v.1.13,2013-07-01 20:50:00,
2013-07-01 16:55:00,74.5,69.0,30.01,North,5,0.0,0.0,83,0.00,,,0.01,Wunderground v.1.13,2013-07-01 20:55:00,
2013-07-01 17:00:00,74.4,69.2,30.01,North,5,0.0,0.0,84,0.00,,,0.01,Wunderground v.1.13,2013-07-01 21:00:00,
2013-07-01 17:05:00,74.4,69.6,30.01,North,5,0.0,0.0,85,0.00,,,0.01,Wunderground v.1.13,2013-07-01 21:05:00,
2013-07-01 17:10:00,74.2,69.4,30.01,North,5,0.0,0.0,85,0.00,,,0.01,Wunderground v.1.13,2013-07-01 21:10:00,
2013-07-01 17:15:00,73.9,68.8,30.01,North,5,0.0,0.0,84,0.00,,,0.01,Wunderground v.1.13,2013-07-01 21:15:00,
2013-07-01 17:21:00,73.7,68.9,30.01,North,5,0.0,0.0,85,0.00,,,0.01,Wunderground v.1.13,2013-07-01 21:21:00,
2013-07-01 17:26:00,73.4,69.0,30.01,North,360,0.0,0.0,86,0.00,,,0.01,Wunderground v.1.13,2013-07-01 21:26:00,
2013-07-01 17:31:00,73.0,68.9,30.01,North,5,0.0,0.0,87,0.00,,,0.01,Wunderground v.1.13,2013-07-01 21:31:00,
2013-07-01 17:36:00,72.4,68.6,30.01,North,5,0.0,1.0,88,0.00,,,0.01,Wunderground v.1.13,2013-07-01 21:36:00,
2013-07-01 17:41:00,72.1,68.7,30.01,North,5,0.0,0.0,89,0.00,,,0.01,Wunderground v.1.13,2013-07-01 21:41:00,
2013-07-01 17:46:00,71.7,68.3,30.01,North,5,0.0,0.0,89,0.00,,,0.02,Wunderground v.1.13,2013-07-01 21:46:00,
2013-07-01 17:51:00,71.4,68.0,30.01,North,360,0.0,0.0,89,0.00,,,0.02,Wunderground v.1.13,2013-07-01 21:51:00,
2013-07-01 17:56:00,71.2,68.1,30.01,North,5,0.0,0.0,90,0.00,,,0.02,Wunderground v.1.13,2013-07-01 21:56:00,
2013-07-01 18:01:00,71.0,67.9,30.01,North,360,0.0,0.0,90,0.05,,,0.03,Wunderground v.1.13,2013-07-01 22:01:00,
2013-07-01 18:06:00,70.8,67.7,30.01,North,5,0.0,0.0,90,0.08,,,0.04,Wunderground v.1.13,2013-07-01 22:06:00,
2013-07-01 18:11:00,70.7,67.9,30.01,North,5,0.0,0.0,91,0.09,,,0.04,Wunderground v.1.13,2013-07-01 22:11:00,
2013-07-01 18:16:00,70.6,67.8,30.02,North,360,0.0,0.0,91,0.09,,,0.05,Wunderground v.1.13,2013-07-01 22:16:00,
2013-07-01 18:21:00,70.6,67.8,30.02,North,5,0.0,0.0,91,0.08,,,0.06,Wunderground v.1.13,2013-07-01 22:21:00,
2013-07-01 18:26:00,70.4,67.6,30.02,North,360,0.0,0.0,91,0.08,,,0.06,Wunderground v.1.13,2013-07-01 22:26:00,
2013-07-01 18:31:00,70.4,67.6,30.02,North,5,0.0,0.0,91,0.08,,,0.07,Wunderground v.1.13,2013-07-01 22:31:00,
2013-07-01 18:36:00,70.3,67.9,30.02,North,360,0.0,0.0,92,0.08,,,0.08,Wunderground v.1.13,2013-07-01 22:36:00,
2013-07-01 18:41:00,70.2,67.8,30.01,North,5,0.0,0.0,92,0.07,,,0.08,Wunderground v.1.13,2013-07-01 22:41:00,
2013-07-01 18:47:00,70.2,67.8,30.01,North,5,0.0,1.0,92,0.06,,,0.09,Wunderground v.1.13,2013-07-01 22:47:00,
2013-07-01 18:52:00,70.1,67.7,30.01,SW,222,0.0,1.0,92,0.06,,,0.09,Wunderground v.1.13,2013-07-01 22:52:00,
2013-07-01 18:57:00,70.1,67.7,30.02,SW,222,0.0,1.0,92,0.04,,,0.09,Wunderground v.1.13,2013-07-01 22:57:00,
2013-07-01 19:02:00,70.0,67.6,30.01,SSW,205,0.0,0.0,92,0.00,,,0.09,Wunderground v.1.13,2013-07-01 23:02:00,
2013-07-01 19:07:00,69.8,67.4,30.01,SSW,205,0.0,3.0,92,0.00,,,0.10,Wunderground v.1.13,2013-07-01 23:07:00,
2013-07-01 19:12:00,69.7,67.3,30.01,SSW,204,1.0,2.0,92,0.00,,,0.10,Wunderground v.1.13,2013-07-01 23:12:00,
2013-07-01 19:17:00,69.5,67.1,30.02,SW,226,0.0,2.0,92,0.00,,,0.10,Wunderground v.1.13,2013-07-01 23:17:00,
2013-07-01 19:22:00,69.5,67.1,30.02,SW,226,0.0,2.0,92,0.04,,,0.11,Wunderground v.1.13,2013-07-01 23:22:00,
2013-07-01 19:27:00,69.4,67.0,30.02,SW,225,0.0,1.0,92,0.21,,,0.13,Wunderground v.1.13,2013-07-01 23:27:00,
2013-07-01 19:32:00,69.4,67.0,30.02,SW,225,0.0,0.0,92,0.20,,,0.15,Wunderground v.1.13,2013-07-01 23:32:00,
2013-07-01 19:37:00,69.3,66.9,30.02,SW,226,0.0,0.0,92,0.13,,,0.16,Wunderground v.1.13,2013-07-01 23:37:00,
2013-07-01 19:42:00,69.2,66.8,30.02,SW,226,0.0,1.0,92,0.12,,,0.17,Wunderground v.1.13,2013-07-01 23:42:00,
2013-07-01 19:47:00,69.0,66.6,30.02,WSW,252,3.0,3.0,92,0.11,,,0.18,Wunderground v.1.13,2013-07-01 23:47:00,
2013-07-01 19:52:00,68.9,66.5,30.02,WSW,254,1.0,1.0,92,0.11,,,0.19,Wunderground v.1.13,2013-07-01 23:52:00,
2013-07-01 19:57:00,68.9,66.5,30.03,WNW,302,0.0,1.0,92,0.06,,,0.19,Wunderground v.1.13,2013-07-01 23:57:00,
2013-07-01 20:03:00,68.8,66.4,30.02,WNW,300,0.0,2.0,92,0.27,,,0.20,Wunderground v.1.13,2013-07-02 00:03:00,
2013-07-01 20:08:00,68.8,66.4,30.03,WNW,303,0.0,2.0,92,0.12,,,0.22,Wunderground v.1.13,2013-07-02 00:08:00,
2013-07-01 20:13:00,68.8,66.4,30.03,WNW,303,0.0,0.0,92,0.17,,,0.23,Wunderground v.1.13,2013-07-02 00:13:00,
2013-07-01 20:18:00,68.7,66.6,30.03,WNW,303,1.0,1.0,93,0.40,,,0.25,Wunderground v.1.13,2013-07-02 00:18:00,
2013-07-01 20:23:00,68.6,66.5,30.03,WNW,303,0.0,2.0,93,0.21,,,0.28,Wunderground v.1.13,2013-07-02 00:23:00,
2013-07-01 20:29:00,68.7,66.6,30.04,WNW,302,1.0,3.0,93,0.74,,,0.34,Wunderground v.1.13,2013-07-02 00:29:00,
2013-07-01 20:34:00,68.7,66.6,30.04,WNW,300,0.0,1.0,93,0.59,,,0.42,Wunderground v.1.13,2013-07-02 00:34:00,
2013-07-01 20:39:00,68.6,66.5,30.04,WNW,300,0.0,0.0,93,1.44,,,0.47,Wunderground v.1.13,2013-07-02 00:39:00,
2013-07-01 20:44:00,68.5,66.4,30.04,SW,230,0.0,2.0,93,0.69,,,0.53,Wunderground v.1.13,2013-07-02 00:44:00,
2013-07-01 20:49:00,68.5,66.4,30.04,SW,230,0.0,1.0,93,0.69,,,0.57,Wunderground v.1.13,2013-07-02 00:49:00,
2013-07-01 20:54:00,68.5,66.4,30.05,SW,236,0.0,2.0,93,0.15,,,0.59,Wunderground v.1.13,2013-07-02 00:54:00,
2013-07-01 20:59:00,68.5,66.4,30.05,SW,236,0.0,0.0,93,0.12,,,0.60,Wunderground v.1.13,2013-07-02 00:59:00,
2013-07-01 21:04:00,68.5,66.4,30.05,SW,236,0.0,1.0,93,0.49,,,0.63,Wunderground v.1.13,2013-07-02 01:04:00,
2013-07-01 21:10:00,68.4,66.3,30.05,SW,236,0.0,0.0,93,0.26,,,0.66,Wunderground v.1.13,2013-07-02 01:10:00,
2013-07-01 21:15:00,68.4,66.3,30.05,SW,236,0.0,0.0,93,0.14,,,0.67,Wunderground v.1.13,2013-07-02 01:15:00,
2013-07-01 21:20:00,68.4,66.3,30.06,SW,234,0.0,0.0,93,0.07,,,0.67,Wunderground v.1.13,2013-07-02 01:20:00,
2013-07-01 21:25:00,68.3,66.2,30.05,SW,234,0.0,0.0,93,0.67,,,0.72,Wunderground v.1.13,2013-07-02 01:25:00,
2013-07-01 21:30:00,68.3,66.2,30.06,SW,234,0.0,0.0,93,0.36,,,0.75,Wunderground v.1.13,2013-07-02 01:30:00,
2013-07-01 21:35:00,68.2,66.1,30.05,SW,235,0.0,0.0,93,0.13,,,0.76,Wunderground v.1.13,2013-07-02 01:35:00,
2013-07-01 21:40:00,68.1,66.0,30.06,WSW,237,0.0,0.0,93,0.17,,,0.77,Wunderground v.1.13,2013-07-02 01:40:00,
2013-07-01 21:45:00,68.1,66.0,30.06,WNW,291,0.0,0.0,93,0.08,,,0.77,Wunderground v.1.13,2013-07-02 01:45:00,
2013-07-01 21:50:00,67.9,65.8,30.06,West,279,0.0,0.0,93,0.25,,,0.80,Wunderground v.1.13,2013-07-02 01:50:00,
2013-07-01 21:55:00,67.7,65.6,30.06,WSW,250,3.0,3.0,93,0.91,,,0.83,Wunderground v.1.13,2013-07-02 01:55:00,
2013-07-01 22:00:00,67.5,65.4,30.07,WNW,294,2.0,7.0,93,0.18,,,0.84,Wunderground v.1.13,2013-07-02 02:00:00,
2013-07-01 22:05:00,67.0,64.9,30.06,NNW,340,1.0,2.0,93,0.08,,,0.84,Wunderground v.1.13,2013-07-02 02:05:00,
2013-07-01 22:10:00,66.6,64.5,30.06,South,172,0.0,1.0,93,0.07,,,0.85,Wunderground v.1.13,2013-07-02 02:10:00,
2013-07-01 22:15:00,66.4,64.3,30.06,NNW,340,0.0,1.0,93,0.07,,,0.85,Wunderground v.1.13,2013-07-02 02:15:00,
2013-07-01 22:20:00,66.3,64.2,30.06,NNE,32,0.0,1.0,93,0.04,,,0.85,Wunderground v.1.13,2013-07-02 02:20:00,
2013-07-01 22:25:00,66.1,64.0,30.07,NNE,13,1.0,2.0,93,0.00,,,0.85,Wunderground v.1.13,2013-07-02 02:25:00,
2013-07-01 22:30:00,66.0,63.9,30.07,NNE,15,0.0,1.0,93,0.00,,,0.85,Wunderground v.1.13,2013-07-02 02:30:00,
2013-07-01 22:36:00,65.8,63.7,30.07,NNE,13,0.0,1.0,93,0.00,,,0.85,Wunderground v.1.13,2013-07-02 02:36:00,
2013-07-01 22:41:00,65.6,63.5,30.07,NNE,17,2.0,2.0,93,0.00,,,0.85,Wunderground v.1.13,2013-07-02 02:41:00,
2013-07-01 22:46:00,65.3,63.2,30.07,NNE,30,0.0,3.0,93,0.00,,,0.85,Wunderground v.1.13,2013-07-02 02:46:00,
2013-07-01 22:51:00,65.1,63.0,30.07,NW,316,2.0,2.0,93,0.00,,,0.85,Wunderground v.1.13,2013-07-02 02:51:00,
2013-07-01 22:56:00,65.0,62.9,30.07,SSW,196,0.0,1.0,93,0.00,,,0.85,Wunderground v.1.13,2013-07-02 02:56:00,
2013-07-01 23:01:00,64.9,62.8,30.07,NE,42,2.0,2.0,93,0.00,,,0.85,Wunderground v.1.13,2013-07-02 03:01:00,
2013-07-01 23:06:00,64.8,62.7,30.07,SE,146,0.0,1.0,93,0.00,,,0.85,Wunderground v.1.13,2013-07-02 03:06:00,
2013-07-01 23:11:00,64.6,62.5,30.07,North,5,1.0,2.0,93,0.00,,,0.85,Wunderground v.1.13,2013-07-02 03:11:00,
2013-07-01 23:16:00,64.5,62.4,30.07,North,360,0.0,1.0,93,0.00,,,0.85,Wunderground v.1.13,2013-07-02 03:16:00,
2013-07-01 23:21:00,64.5,62.4,30.06,North,360,0.0,1.0,93,0.00,,,0.85,Wunderground v.1.13,2013-07-02 03:21:00,
2013-07-01 23:27:00,64.4,62.3,30.07,ENE,67,0.0,3.0,93,0.00,,,0.85,Wunderground v.1.13,2013-07-02 03:27:00,
2013-07-01 23:32:00,64.3,62.2,30.06,ENE,75,1.0,1.0,93,0.00,,,0.85,Wunderground v.1.13,2013-07-02 03:32:00,
2013-07-01 23:37:00,64.1,62.0,30.06,ENE,75,0.0,1.0,93,0.00,,,0.85,Wunderground v.1.13,2013-07-02 03:37:00,
2013-07-01 23:42:00,64.0,61.9,30.06,South,178,0.0,1.0,93,0.00,,,0.85,Wunderground v.1.13,2013-07-02 03:42:00,
2013-07-01 23:47:00,63.9,61.8,30.06,NW,318,0.0,0.0,93,0.00,,,0.85,Wunderground v.1.13,2013-07-02 03:47:00,
2013-07-01 23:52:00,63.8,61.7,30.06,NW,321,0.0,1.0,93,0.00,,,0.85,Wunderground v.1.13,2013-07-02 03:52:00,
2013-07-01 23:57:00,63.7,61.6,30.06,North,355,2.0,4.0,93,0.00,,,0.85,Wunderground v.1.13,2013-07-02 03:57:00,